User: anonymous   Login
Location: Wildlife_Club
(35.6000°N, 81.4330°W)
Time: 20:24:11
(UTC-05:00)
Language:

Cosmos 1782 - Orbit

View from above orbital plane
View from above orbital plane
View from above satellite
View from above satellite

Ground track
Ground track

The orbit data is extracted from the following two-line orbital elements,

1 16986U 86074A   16042.12623951  .00001189  00000-0  79941-4 0  9990
2 16986  82.5043 239.6715 0010343 214.7335 145.3218 15.05827867596781
Epoch (UTC): 11 February 2016 03:01:47
Eccentricity: 0.0010343
inclination: 82.5043°
perigee height: 542 km
apogee height: 556 km
right ascension of ascending node: 239.6715°
argument of perigee: 214.7335°
revolutions per day: 15.05827867
mean anomaly at epoch: 145.3218°
orbit number at epoch: 59678

The dashed part of the orbit path shows where the satellite is in the earth's shadow,  

DLR